GW4256 Weather Reports


Display with metric or nautical units.
time (UTC)temp
F
wind
direction
speed
MPH
gust
MPH
rain 1hr
in
rain 24hr
in
rain mn
in
humidity
%
barometer
mb
20260507204509 61 353 3.0 14.0 0.00 0.09 0.00 43 1010.2
20260507203027 63 246 3.0 11.0 0.00 0.09 0.00 44 1010.2
20260507201522 62 342 4.0 13.0 0.00 0.09 0.00 46 1010.3
20260507200028 63 159 3.0 15.0 0.00 0.09 0.00 47 1010.1
20260507194509 63 34 4.0 13.0 0.00 0.09 0.00 47 1010.4
20260507193028 62 155 4.0 12.0 0.00 0.09 0.00 51 1010.7
20260507191521 65 72 5.0 17.0 0.00 0.09 0.00 47 1010.6
20260507190026 62 22 2.0 12.0 0.00 0.09 0.00 53 1010.8
20260507184524 63 27 1.0 7.0 0.00 0.09 0.00 49 1010.9
20260507183014 65 37 4.0 8.0 0.00 0.09 0.00 50 1010.8
20260507181518 62 58 2.0 8.0 0.00 0.09 0.00 54 1011.0
20260507180005 62 358 1.0 8.0 0.00 0.09 0.00 52 1011.2
20260507174504 61 18 2.0 9.0 0.00 0.09 0.00 52 1011.3
20260507173008 62 91 1.0 6.0 0.00 0.09 0.00 55 1011.3
20260507171517 60 105 1.0 7.0 0.00 0.09 0.00 57 1011.6
20260507170039 59 278 1.0 9.0 0.00 0.09 0.00 60 1011.9
20260507164504 59 207 0.0 3.0 0.00 0.09 0.00 62 1011.9
20260507163008 58 146 1.0 5.0 0.00 0.09 0.00 66 1012.2
20260507161512 56 173 2.0 4.0 0.00 0.09 0.00 67 1012.3
20260507160018 56 169 0.0 2.0 0.00 0.09 0.00 65 1012.6
20260507154523 56 64 0.0 2.0 0.00 0.09 0.00 68 1012.8
20260507153009 55 358 1.0 5.0 0.00 0.09 0.00 69 1013.0
20260507151511 55 20 1.0 5.0 0.00 0.09 0.00 70 1012.9
20260507150031 54 353 1.0 7.0 0.00 0.09 0.00 72 1013.0
20260507144520 54 360 2.0 5.0 0.00 0.09 0.00 75 1013.1
20260507143028 54 314 2.0 5.0 0.00 0.09 0.00 75 1013.0
20260507141508 53 356 2.0 5.0 0.00 0.09 0.00 77 1013.1
20260507140018 53 44 1.0 3.0 0.00 0.10 0.00 81 1013.5
20260507134520 52 351 0.0 2.0 0.00 0.10 0.00 83 1013.7
20260507133024 52 58 1.0 4.0 0.00 0.10 0.00 83 1013.6
20260507131533 53 1 1.0 5.0 0.00 0.11 0.00 83 1013.6
20260507130014 53 62 1.0 5.0 0.00 0.15 0.00 84 1013.6
20260507124517 53 1 1.0 5.0 0.00 0.17 0.00 85 1013.6
20260507123020 53 1 0.0 3.0 0.00 0.18 0.00 84 1013.5
20260507121526 54 360 1.0 2.0 0.00 0.18 0.00 87 1013.3
20260507120037 53 157 0.0 2.0 0.00 0.18 0.00 92 1013.2
20260507114515 53 296 0.0 0.0 0.00 0.18 0.00 94 1013.4
20260507113019 53 118 0.0 0.0 0.00 0.21 0.00 94 1013.0
20260507111524 53 101 0.0 0.0 0.00 0.21 0.00 94 1012.9
20260507110024 52 101 0.0 0.0 0.00 0.24 0.00 94 1012.9
20260507104526 52 101 0.0 0.0 0.00 0.28 0.00 94 1012.7
20260507103019 52 101 0.0 0.0 0.00 0.28 0.00 94 1012.5
20260507101524 52 137 0.0 0.0 0.00 0.28 0.00 94 1012.3
20260507100033 52 203 0.0 0.0 0.00 0.28 0.00 94 1012.1
20260507094524 52 352 0.0 2.0 0.00 0.28 0.00 94 1012.3
20260507093026 52 45 0.0 1.0 0.00 0.28 0.00 94 1012.3
20260507091520 53 45 0.0 2.0 0.00 0.28 0.00 93 1012.2
20260507090008 53 25 0.0 2.0 0.00 0.28 0.00 93 1012.7
20260507084511 53 353 0.0 2.0 0.00 0.28 0.00 93 1012.4
20260507083013 53 12 0.0 2.0 0.00 0.28 0.00 93 1012.8
20260507081534 53 1 0.0 2.0 0.00 0.28 0.00 93 1012.6
20260507080022 53 6 1.0 3.0 0.00 0.28 0.00 93 1012.2
20260507074513 53 360 0.0 2.0 0.00 0.28 0.00 93 1012.3
20260507073010 53 360 1.0 3.0 0.00 0.28 0.00 93 1012.1
20260507071517 54 343 0.0 0.0 0.00 0.28 0.00 94 1012.2
20260507070021 54 314 0.0 0.0 0.00 0.28 0.00 94 1012.3
20260507064524 54 314 0.0 0.0 0.00 0.28 0.00 94 1012.8
20260507063014 55 314 0.0 0.0 0.00 0.28 0.00 94 1012.1
20260507061514 55 301 0.0 0.0 0.00 0.28 0.00 94 1012.1
20260507060020 55 301 0.0 0.0 0.00 0.28 0.00 93 1012.4
20260507054522 55 179 0.0 0.0 0.00 0.28 0.00 92 1012.4
20260507053025 56 184 0.0 2.0 0.00 0.28 0.00 92 1012.4
20260507051512 56 160 0.0 2.0 0.00 0.28 0.00 92 1013.1
20260507050025 56 141 2.0 4.0 0.00 0.28 0.00 94 1012.8
20260507044523 56 197 0.0 2.0 0.00 0.28 0.00 95 1012.4
20260507043024 56 311 0.0 2.0 0.00 0.28 0.00 95 1012.3
20260507041526 56 344 0.0 2.0 0.00 0.28 0.00 95 1012.1
20260507040016 57 176 0.0 0.0 0.01 0.28 0.00 94 1011.4
20260507034520 57 176 0.0 0.0 0.02 0.28 0.28 94 1011.9
20260507033025 57 5 0.0 2.0 0.03 0.28 0.28 94 1012.9
20260507031527 57 185 1.0 2.0 0.05 0.28 0.28 94 1012.5
20260507030026 57 71 0.0 3.0 0.04 0.27 0.27 94 1013.7
20260507024517 58 137 0.0 1.0 0.03 0.26 0.26 93 1013.0
20260507023022 59 167 0.0 0.0 0.02 0.25 0.25 93 1012.9
20260507021524 59 342 0.0 2.0 0.00 0.23 0.23 93 1012.8
20260507020010 59 172 0.0 2.0 0.00 0.23 0.23 92 1012.1
20260507014523 59 333 1.0 3.0 0.00 0.23 0.23 92 1012.7
20260507013020 60 5 2.0 4.0 0.01 0.23 0.23 92 1012.2
20260507011505 60 13 0.0 2.0 0.01 0.23 0.23 91 1011.8
20260507010009 61 338 1.0 4.0 0.01 0.23 0.23 92 1011.6
20260507004516 61 352 1.0 2.0 0.01 0.23 0.23 91 1011.6
20260507003020 62 360 0.0 2.0 0.00 0.22 0.22 92 1011.5
20260507001526 62 360 0.0 4.0 0.00 0.22 0.22 93 1011.6
20260507000007 63 1 1.0 3.0 0.00 0.22 0.22 93 1011.4
20260506234513 63 318 0.0 1.0 0.00 0.22 0.22 93 1011.4
20260506233018 63 219 0.0 2.0 0.02 0.22 0.22 92 1011.4
20260506231519 64 323 0.0 2.0 0.02 0.22 0.22 92 1011.2
20260506230023 64 355 0.0 2.0 0.02 0.22 0.22 92 1011.4
20260506224508 64 327 2.0 4.0 0.02 0.22 0.22 91 1011.4
20260506223014 64 360 0.0 0.0 0.00 0.20 0.20 88 1011.3
20260506221520 65 110 0.0 0.0 0.01 0.20 0.20 87 1011.1
20260506220025 65 171 0.0 2.0 0.01 0.20 0.20 89 1011.1
20260506214523 65 152 0.0 2.0 0.01 0.20 0.20 88 1011.0
20260506213009 66 1 0.0 2.0 0.01 0.20 0.20 86 1010.8
20260506211518 67 74 1.0 7.0 0.00 0.19 0.19 80 1010.8
20260506210020 69 314 0.0 2.0 0.00 0.19 0.19 76 1010.8